Location: Unspecified
(35.9148°N, 0.0000°E)
Time: 11:09:03
(UTC+00:00)

OTV 5 (USA 277) - Pass Details

Date: 01 June 2019
Orbit: 310 x 325 km, 54.5° (Epoch: 08 May)

Event Time Altitude Azimuth Distance (km) Brightness Sun altitude
Exits shadow 03:45:11 - 171° (S) 1,684 ? -11.0°
Reaches altitude 10° 03:47:08 10° 142° (SE) 1,232 ? -10.7°
Maximum altitude 03:47:57 11° 124° (SE) 1,179 ? -10.6°
Drops below altitude 10° 03:48:47 10° 106° (ESE) 1,234 ? -10.4°
Sets 03:51:52 0° 68° (ENE) 2,069 ? -9.9°
